Tracking 35274 objects as of 12-Sep-2026
HD Live streaming from Space Station
objects crossing your sky now

COSMOS 886 DEB

Track COSMOS 886 DEB now!
10-day predictions


NORAD ID: 13507
Int'l Code: 1976-126BK
Launch date: December 27, 1976
Source: Commonwealth of Independent States (former USSR) (CIS)
Launch site: TYURATAM MISSILE AND SPACE COMPLEX (TTMTR)

Note: This is SATELLITE DEBRIS
Your satellite tracking list
Your tracking list is empty




NASA's NSSDC Master Catalog

Two Line Element Set (TLE):
1 13507U 76126BK  26254.78670166  .00000207  00000-0  11540-2 0  9990
2 13507  65.7600  13.2092 0883581 232.4561 291.8934 11.92306522971111
Source of the keplerian elements: AFSPC